Regional Weather Roundup
Issued by NWS

Home | Current Version | Previous Version | Graphics & Text | Print | Product List | Glossary On
Versions: 1 2 3 4 5 6 7 8 9 10 11 12 13 14 15 16 17 18 19 20 21 22 23 24 25 26 27 28 29 30 31 32 33 34 35 36 37 38 39 40 41 42 43 44 45 46 47 48 49 50
933
ASUS44 KJAN 301903
RWRMS

MISSISSIPPI HOURLY WEATHER ROUNDUP
NATIONAL WEATHER SERVICE JACKSON MS
100 PM CST FRI JAN 30 2015

NOTE: "FAIR: INDICATES FEW OR NO CLOUDS BELOW 12,000 FEET WITH NO
SIGNIFICANT WEATHER AND/OR OBSTRUCTIONS TO VISIBILITY.

MSZ001>002-007>008-010>013-018>021-025>028-034>036-302000-
NORTHWEST MISSISSIPPI

CITY           SKY/WX    TMP DP  RH WIND       PRES   REMARKS
CLARKSDALE     FAIR      46  30  53 N12       30.47F
CLEVELAND      FAIR      48  33  57 N10G16    30.45F
GREENWOOD      SUNNY     51  29  42 VRB7      30.43F
GREENVILLE     MOSUNNY   50  32  50 N13       30.45F
GRENADA        FAIR      52  28  40 CALM      30.44F
OLIVE BRANCH   MOSUNNY   45  27  49 N10       30.46F
OXFORD         FAIR      46  25  42 N7        30.46F
TUNICA         CLEAR     46  28  49 N9        30.48F
$$

MSZ003>006-009-014>017-022>024-029>033-037>039-302000-
NORTHEAST MISSISSIPPI

CITY           SKY/WX    TMP DP  RH WIND       PRES   REMARKS
COLUMBUS AFB   SUNNY     51  24  35 NW9G17    30.41F
CORINTH        FAIR      48  25  40 NE5G13    30.43F
GOLDN TRIANGLE SUNNY     54  30  40 N12G18    30.40F
STARKVILLE     FAIR      50  32  50 N7        30.41F
TUPELO         SUNNY     49  27  42 N9G21     30.43F
$$

MSZ040-058-302000-
CENTRAL MISSISSIPPI

CITY           SKY/WX    TMP DP  RH WIND       PRES   REMARKS
JACKSON INTL   MOSUNNY   54  27  35 N12       30.40F
JACKSON HAWKNS SUNNY     54  28  36 N9        30.40F
MERIDIAN KEY   SUNNY     56  26  31 N12       30.37F
MERIDIAN NAS   PTSUNNY   54  27  35 N12       30.38F
RAYMOND        FAIR      54  50  87 N5        30.41F
VICKSBURG      MOSUNNY   53  31  42 N10       30.43F
$$

MSZ059>079-302000-
SOUTH MISSISSIPPI

CITY           SKY/WX    TMP DP  RH WIND       PRES   REMARKS
BROOKHAVEN     FAIR      54  32  43 N8        30.39F
HATTIESBURG    MOSUNNY   57  30  35 N9        30.36F
MCCOMB         PTSUNNY   55  28  35 N8        30.36F
NATCHEZ        MOSUNNY   55  28  35 NE5       30.40F
PINE BELT      MOSUNNY   57  30  35 N9G18     30.37F
$$

MSZ080>082-302000-
COASTAL MISSISSIPPI

CITY           SKY/WX    TMP DP  RH WIND       PRES   REMARKS
BILOXI         PTSUNNY   56  31  39 NE9       30.33F
PASCAGOULA     PTSUNNY   57  33  40 N10G18    30.32F
GULFPORT       PTSUNNY   57  30  35 N14       30.33F
$$



USA.gov is the U.S. government's official web portal to all federal, state and local government web resources and services.